STARLINK-1770, 46383

Orbit data source: Space-Track

STARLINK-1770, 46383 is a payload satellite owned by SpaceX/Seattle (US) in LEO that was launched on Thu, 03 Sep 2020 UTC via an FALCON 9 launch vehicle from the Air Force Eastern Test Range (AFETR). Payload-class satellites include a variety of spacecraft equipped with specific instruments for various scientific and technological missions. These include communications satellites like Starlink; space stations such as the ISS; scientific satellites like the Hubble; Earth observation satellites from companies like Planet Labs, Umbra, and HawkEye 360; GPS; miniature CubeSats for education and research; and military/defense satellites.

Loading next visibility...
Identifier
46383, 2020-062BL
Orbit
LEO
Last TLE update
13 hours ago
Origin
Manufacturer
SpaceX/Seattle
Mission
Operational Commercial Communications
Bus & Motor
STARLINK, Unknown motor
Mass
260 kg wet, ~248 kg dry
Launch date (UTC)
2020-09-03 (5 years ago)
Launch vehicle
FALCON 9
Launch site
Air Force Eastern Test Range (AFETR)
Object type
Payload
Rocket body
Debris
Shape & HBR
Box + 1 Pan, 8.86 m
Radar Cross Section
13.562 m², Large (>1 m²)

Expand to show TLE details & history

TLE from 13 hours ago
0 STARLINK-1770
1 46383U 20062BL  25191.79822906  .00028647  00000-0  11499-2 0  9998
2 46383  53.0575  21.3128 0001855 117.5255 242.5949 15.24772641267866
Epoch: 2025-07-10T19:09Z
TLE epoch observation values (Epoch: 2025-07-10T19:09:26.99Z)
Latitude
0.00143°
Longitude
164.99207°
Altitude
492.941 km
Speed
7.619 km/s
True Right ascension
01h 25m 15s
True Declination
0° 00' 05"
Sunlit
Object was in daylight at epoch
Visualization orbit readout
Latitude
-11.93369°
Longitude
-8.50093°
Altitude
494.248 km
Speed
7.618 km/s
Apparent Right ascension
11h 49m 28s
Apparent Declination
-30° 28' 49"
Sunlit
Object is in daylight
Visualization observer readout
Local Sidereal Time
20:53:08
Azimuth
270.782° WNW
Elevation
-53.158°
Doppler factor
1
Orbital elements
Apogee altitude
493.015 km
Perigee altitude
490.466 km
Semi-major axis
6,869.878 km
Eccentricity
0.00019
Inclination
53.0575°
RAAN
21.3128°
Arg. of periapsis
117.5255°
True anomaly
Unknown
Mean anomaly
242.5949°
Eccentric anomaly
Unknown
Mean motion
3.81171 °/min
Orbital period
94.45 mins
BSTAR
0.0011499
Loading maneuver chart data...
Loading SW <> Apogee altitude chart data...
Loading historical data...
Loading historical data...
Loading historical data...
Loading historical data...
Loading historical data...
Loading historical data...
Loading historical data...

STARLINK-1770 Visibility forecast

Observer location: undefined°, undefined°

Span
Click to sort rows by Start time (UTC) header in descending order
Start Az.
Max El. time (UTC)
Max El. Az.
Max El.
End time (UTC)
End Az.
4 mins2025-07-11 14:11:34.675Z163.231° S2025-07-11 14:13:34.675Z125.622° SE17.323°2025-07-11 14:15:34.675Z89.813° E
5 mins2025-07-11 15:49:34.675Z256.727° W2025-07-11 15:51:34.675Z334.973° NNW38.879°2025-07-11 15:54:34.675Z40.66° NE
4 mins2025-07-11 20:47:34.675Z346.533° N2025-07-11 20:49:34.675Z31.209° NE21.546°2025-07-11 20:51:34.675Z71.132° E
5 mins2025-07-11 22:25:34.675Z297.748° NW2025-07-11 22:27:34.675Z249.092° W40.03°2025-07-11 22:30:34.675Z147.059° SSE
|